SBI5020 USSS-UNNT

Flight info

Callsign SBI5020
Flight time 1h 43m
Altitude 37000
Route ANATU P135 GIBUL P983 TINRI T448 RUBOR A300 ML R814 SZ W1 GOLIM
Aircraft A320/M-SDE2E3FGHIRWXY/LB1

Departure

Time 2026-05-05 09:12
Airport Koltsovo Airport (USSS)

Arrival

Time 2026-05-05 10:55
Airport Novosibirsk Tolmachevo Airport (UNNT)
Time Latitude Longitude Altitude Speed Heading
2026-05-05 08:42 56.74930 60.79944 778 ft 0 kts 359°
2026-05-05 09:03 56.74927 60.79945 778 ft 3 kts 359°
2026-05-05 09:03 56.74901 60.79942 778 ft 4 kts 11°
2026-05-05 09:03 56.74875 60.79928 779 ft 4 kts 30°
2026-05-05 09:04 56.74856 60.79898 779 ft 4 kts 72°
2026-05-05 09:04 56.74853 60.79883 779 ft 0 kts 90°
2026-05-05 09:06 56.74853 60.79915 779 ft 9 kts 90°
2026-05-05 09:06 56.74852 60.80074 778 ft 13 kts 90°
2026-05-05 09:06 56.74853 60.80253 778 ft 17 kts 91°
2026-05-05 09:07 56.74852 60.80485 778 ft 19 kts 91°
2026-05-05 09:07 56.74850 60.80697 778 ft 15 kts 90°
2026-05-05 09:07 56.74851 60.80879 778 ft 13 kts 90°
2026-05-05 09:07 56.74863 60.81093 778 ft 21 kts 83°
2026-05-05 09:08 56.74863 60.81331 778 ft 16 kts 89°
2026-05-05 09:08 56.74863 60.81527 778 ft 15 kts 92°
2026-05-05 09:08 56.74860 60.81700 778 ft 13 kts 91°
2026-05-05 09:08 56.74854 60.81866 778 ft 15 kts 104°
2026-05-05 09:09 56.74802 60.82052 778 ft 19 kts 117°
2026-05-05 09:09 56.74736 60.82201 778 ft 13 kts 160°
2026-05-05 09:09 56.74652 60.82202 778 ft 11 kts 182°
2026-05-05 09:09 56.74566 60.82204 779 ft 15 kts 179°
2026-05-05 09:10 56.74445 60.82202 780 ft 20 kts 181°
2026-05-05 09:10 56.74286 60.82177 778 ft 20 kts 186°
2026-05-05 09:10 56.74172 60.82164 777 ft 13 kts 183°
2026-05-05 09:10 56.74082 60.82165 773 ft 6 kts 177°
2026-05-05 09:11 56.74065 60.82140 773 ft 2 kts 259°
2026-05-05 09:11 56.74067 60.82099 773 ft 5 kts 272°
2026-05-05 09:11 56.74081 60.81732 774 ft 65 kts 274°
2026-05-05 09:11 56.74127 60.80541 776 ft 125 kts 274°
2026-05-05 09:12 56.74209 60.78656 840 ft 167 kts 275°
2026-05-05 09:12 56.74281 60.76478 1382 ft 177 kts 275°
2026-05-05 09:12 56.74351 60.74239 2139 ft 176 kts 275°
2026-05-05 09:12 56.74431 60.71994 2871 ft 179 kts 275°
2026-05-05 09:13 56.74527 60.69727 3642 ft 178 kts 276°
2026-05-05 09:13 56.74624 60.67460 4441 ft 186 kts 275°
2026-05-05 09:13 56.74744 60.65023 5022 ft 200 kts 283°
2026-05-05 09:13 56.74761 60.64868 5047 ft 202 kts 284°
2026-05-05 09:14 56.75289 60.62937 5154 ft 226 kts 316°
2026-05-05 09:15 56.76690 60.61540 5661 ft 245 kts 349°
2026-05-05 09:15 56.78445 60.61977 6130 ft 269 kts 26°
2026-05-05 09:15 56.79858 60.64222 6870 ft 280 kts 51°
2026-05-05 09:15 56.80893 60.67259 7749 ft 284 kts 60°
2026-05-05 09:16 56.81761 60.70532 8609 ft 288 kts 63°
2026-05-05 09:16 56.82604 60.73873 9494 ft 291 kts 63°
2026-05-05 09:16 56.83485 60.77235 10232 ft 298 kts 62°
2026-05-05 09:16 56.84460 60.80727 10480 ft 321 kts 60°
2026-05-05 09:17 56.85559 60.84468 10707 ft 343 kts 59°
2026-05-05 09:17 56.86736 60.88351 11286 ft 352 kts 59°
2026-05-05 09:17 56.87946 60.92271 12017 ft 356 kts 58°
2026-05-05 09:17 56.89147 60.96247 12777 ft 360 kts 63°
2026-05-05 09:18 56.90166 61.00447 13537 ft 363 kts 64°
2026-05-05 09:18 56.91176 61.04702 14201 ft 366 kts 65°
2026-05-05 09:18 56.92189 61.09005 14833 ft 369 kts 65°
2026-05-05 09:18 56.93204 61.13334 15488 ft 372 kts 65°
2026-05-05 09:19 56.94227 61.17708 16119 ft 375 kts 65°
2026-05-05 09:19 56.95263 61.22104 16747 ft 377 kts 64°
2026-05-05 09:19 56.96315 61.26526 17386 ft 380 kts 64°
2026-05-05 09:19 56.97381 61.30992 18022 ft 383 kts 64°
2026-05-05 09:20 56.98454 61.35491 18591 ft 386 kts 64°
2026-05-05 09:20 56.99532 61.40026 19133 ft 389 kts 64°
2026-05-05 09:20 57.00599 61.44537 19689 ft 392 kts 64°
2026-05-05 09:20 57.01681 61.49142 20258 ft 394 kts 64°
2026-05-05 09:21 57.02766 61.53773 20802 ft 397 kts 64°
2026-05-05 09:21 57.03860 61.58448 21339 ft 400 kts 64°
2026-05-05 09:21 57.04627 61.61727 21690 ft 402 kts 64°
2026-05-05 09:21 57.05732 61.66457 22194 ft 404 kts 64°
2026-05-05 09:22 57.06841 61.71222 22695 ft 407 kts 64°
2026-05-05 09:22 57.07954 61.76015 23177 ft 409 kts 64°
2026-05-05 09:22 57.09073 61.80842 23614 ft 412 kts 64°
2026-05-05 09:22 57.10195 61.85699 23995 ft 414 kts 65°
2026-05-05 09:23 57.11323 61.90600 24367 ft 416 kts 65°
2026-05-05 09:23 57.12453 61.95532 24732 ft 419 kts 65°
2026-05-05 09:23 57.13553 62.00514 25085 ft 422 kts 69°
2026-05-05 09:23 57.14399 62.05716 25433 ft 425 kts 72°
2026-05-05 09:24 57.15222 62.10970 25793 ft 427 kts 72°
2026-05-05 09:24 57.16046 62.16241 26129 ft 430 kts 72°
2026-05-05 09:24 57.16873 62.21554 26462 ft 432 kts 72°
2026-05-05 09:24 57.17689 62.26821 26782 ft 434 kts 72°
2026-05-05 09:25 57.18527 62.32257 27108 ft 436 kts 72°
2026-05-05 09:25 57.19353 62.37650 27424 ft 438 kts 72°
2026-05-05 09:25 57.20179 62.43076 27733 ft 440 kts 73°
2026-05-05 09:25 57.20994 62.48455 28024 ft 442 kts 73°
2026-05-05 09:26 57.21822 62.53932 28318 ft 444 kts 73°
2026-05-05 09:26 57.22656 62.59443 28601 ft 446 kts 73°
2026-05-05 09:26 57.23491 62.64969 28862 ft 449 kts 73°
2026-05-05 09:26 57.24330 62.70526 29132 ft 450 kts 73°
2026-05-05 09:27 57.25170 62.76114 29375 ft 452 kts 73°
2026-05-05 09:27 57.26013 62.81729 29630 ft 454 kts 73°
2026-05-05 09:27 57.26852 62.87343 29969 ft 453 kts 73°
2026-05-05 09:27 57.27692 62.92962 30257 ft 453 kts 73°
2026-05-05 09:28 57.28528 62.98583 30519 ft 454 kts 73°
2026-05-05 09:28 57.29361 63.04212 30754 ft 454 kts 73°
2026-05-05 09:28 57.30189 63.09846 31005 ft 455 kts 74°
2026-05-05 09:28 57.31015 63.15503 31249 ft 456 kts 74°
2026-05-05 09:29 57.31841 63.21165 31493 ft 456 kts 74°
2026-05-05 09:29 57.32666 63.26838 31748 ft 457 kts 74°
2026-05-05 09:29 57.33491 63.32538 31992 ft 458 kts 74°
2026-05-05 09:29 57.34313 63.38235 32237 ft 459 kts 74°
2026-05-05 09:30 57.35134 63.43950 32494 ft 460 kts 75°
2026-05-05 09:30 57.35956 63.49688 32740 ft 461 kts 75°
2026-05-05 09:30 57.36775 63.55423 32984 ft 461 kts 75°
2026-05-05 09:30 57.37593 63.61176 33237 ft 462 kts 75°
2026-05-05 09:31 57.38409 63.66937 33469 ft 463 kts 76°
2026-05-05 09:31 57.38931 63.72763 33723 ft 464 kts 85°
2026-05-05 09:31 57.38948 63.78740 33965 ft 464 kts 95°
2026-05-05 09:31 57.38468 63.84650 34162 ft 465 kts 104°
2026-05-05 09:32 57.37658 63.90453 34376 ft 465 kts 105°
2026-05-05 09:32 57.36832 63.96275 34575 ft 466 kts 105°
2026-05-05 09:32 57.36007 64.02084 34780 ft 467 kts 105°
2026-05-05 09:32 57.35180 64.07903 34973 ft 467 kts 105°
2026-05-05 09:33 57.34354 64.13716 35160 ft 468 kts 105°
2026-05-05 09:33 57.33524 64.19543 35345 ft 468 kts 105°
2026-05-05 09:33 57.32691 64.25371 35529 ft 469 kts 105°
2026-05-05 09:33 57.31852 64.31198 35707 ft 469 kts 106°
2026-05-05 09:34 57.31002 64.37043 35886 ft 469 kts 106°
2026-05-05 09:34 57.30148 64.42882 36056 ft 470 kts 106°
2026-05-05 09:34 57.29288 64.48714 36224 ft 470 kts 106°
2026-05-05 09:34 57.28428 64.54539 36385 ft 471 kts 106°
2026-05-05 09:35 57.27578 64.60310 36544 ft 471 kts 106°
2026-05-05 09:35 57.25860 64.72001 36856 ft 472 kts 107°
2026-05-05 09:35 57.24995 64.77858 36898 ft 474 kts 107°
2026-05-05 09:36 57.23241 64.89594 36891 ft 474 kts 107°
2026-05-05 09:36 57.21769 64.99336 36894 ft 474 kts 107°
2026-05-05 09:37 57.19986 65.11070 36891 ft 475 kts 107°
2026-05-05 09:37 57.18195 65.22784 36894 ft 475 kts 107°
2026-05-05 09:38 57.16663 65.34633 36893 ft 477 kts 98°
2026-05-05 09:38 57.15909 65.46773 36894 ft 477 kts 98°
2026-05-05 09:39 57.15128 65.58921 36894 ft 478 kts 98°
2026-05-05 09:39 57.14333 65.71073 36897 ft 478 kts 98°
2026-05-05 09:40 57.13534 65.83233 36900 ft 478 kts 98°
2026-05-05 09:40 57.12721 65.95399 36905 ft 479 kts 99°
2026-05-05 09:41 57.11888 66.07557 36902 ft 479 kts 99°
2026-05-05 09:41 57.11048 66.19720 36905 ft 479 kts 99°
2026-05-05 09:42 57.10211 66.31802 36907 ft 480 kts 99°
2026-05-05 09:42 57.09358 66.43980 36907 ft 480 kts 99°
2026-05-05 09:43 57.08482 66.56153 36906 ft 480 kts 99°
2026-05-05 09:43 57.07591 66.68308 36906 ft 480 kts 100°
2026-05-05 09:44 57.06689 66.80497 36907 ft 481 kts 100°
2026-05-05 09:44 57.05771 66.92669 36906 ft 481 kts 100°
2026-05-05 09:45 57.04779 67.04750 36904 ft 481 kts 101°
2026-05-05 09:45 57.03709 67.16892 36904 ft 481 kts 102°
2026-05-05 09:46 57.02637 67.29027 36903 ft 481 kts 102°
2026-05-05 09:46 57.01569 67.41192 36903 ft 482 kts 102°
2026-05-05 09:47 57.00491 67.53320 36903 ft 482 kts 102°
2026-05-05 09:47 56.99410 67.65379 36901 ft 482 kts 102°
2026-05-05 09:48 56.98310 67.77512 36900 ft 482 kts 102°
2026-05-05 09:48 56.97193 67.89639 36895 ft 483 kts 102°
2026-05-05 09:49 56.96064 68.01782 36893 ft 483 kts 102°
2026-05-05 09:49 56.94926 68.13902 36892 ft 483 kts 102°
2026-05-05 09:50 56.93770 68.26049 36894 ft 484 kts 103°
2026-05-05 09:50 56.92596 68.38180 36889 ft 484 kts 103°
2026-05-05 09:51 56.91418 68.50307 36887 ft 484 kts 103°
2026-05-05 09:51 56.90233 68.62442 36887 ft 485 kts 103°
2026-05-05 09:52 56.89022 68.74581 36884 ft 485 kts 103°
2026-05-05 09:52 56.87806 68.86705 36880 ft 485 kts 103°
2026-05-05 09:53 56.86587 68.98783 36882 ft 486 kts 103°
2026-05-05 09:53 56.85342 69.10935 36878 ft 486 kts 104°
2026-05-05 09:54 56.84082 69.23081 36877 ft 487 kts 104°
2026-05-05 09:54 56.82817 69.35232 36875 ft 487 kts 104°
2026-05-05 09:55 56.81539 69.47392 36889 ft 488 kts 104°
2026-05-05 09:55 56.80242 69.59545 36879 ft 488 kts 104°
2026-05-05 09:56 56.78928 69.71711 36876 ft 489 kts 104°
2026-05-05 09:56 56.77614 69.83879 36876 ft 489 kts 104°
2026-05-05 09:57 56.76283 69.96050 36874 ft 489 kts 104°
2026-05-05 09:57 56.74946 70.08140 36881 ft 490 kts 105°
2026-05-05 09:58 56.73572 70.20300 36877 ft 491 kts 105°
2026-05-05 09:58 56.72150 70.32464 36879 ft 491 kts 106°
2026-05-05 09:59 56.70668 70.44597 36875 ft 491 kts 106°
2026-05-05 09:59 56.69162 70.56714 36872 ft 491 kts 106°
2026-05-05 10:00 56.67658 70.68813 36863 ft 491 kts 106°
2026-05-05 10:00 56.66146 70.80914 36861 ft 491 kts 106°
2026-05-05 10:01 56.64616 70.93014 36861 ft 491 kts 107°
2026-05-05 10:01 56.63075 71.05122 36861 ft 492 kts 107°
2026-05-05 10:02 56.61522 71.17249 36864 ft 493 kts 107°
2026-05-05 10:02 56.59963 71.29291 36865 ft 494 kts 107°
2026-05-05 10:03 56.58388 71.41418 36870 ft 494 kts 107°
2026-05-05 10:03 56.56792 71.53563 36874 ft 495 kts 107°
2026-05-05 10:04 56.55171 71.65712 36877 ft 495 kts 107°
2026-05-05 10:04 56.53550 71.77849 36881 ft 496 kts 107°
2026-05-05 10:05 56.51916 71.90010 36884 ft 497 kts 107°
2026-05-05 10:05 56.50258 72.02173 36889 ft 497 kts 107°
2026-05-05 10:06 56.48607 72.14257 36892 ft 498 kts 107°
2026-05-05 10:06 56.46928 72.26420 36891 ft 498 kts 107°
2026-05-05 10:07 56.45230 72.38576 36886 ft 498 kts 107°
2026-05-05 10:07 56.43527 72.50732 36891 ft 499 kts 107°
2026-05-05 10:08 56.41810 72.62909 36897 ft 500 kts 107°
2026-05-05 10:08 56.40084 72.75070 36899 ft 500 kts 107°
2026-05-05 10:09 56.38346 72.87234 36903 ft 501 kts 107°
2026-05-05 10:09 56.36592 72.99390 36905 ft 501 kts 108°
2026-05-05 10:10 56.33109 73.23104 36896 ft 501 kts 108°
2026-05-05 10:11 56.31315 73.35259 36890 ft 502 kts 108°
2026-05-05 10:11 56.29507 73.47380 36894 ft 502 kts 108°
2026-05-05 10:12 56.27678 73.59513 36891 ft 502 kts 108°
2026-05-05 10:12 56.25836 73.71621 36889 ft 502 kts 108°
2026-05-05 10:13 56.23992 73.83739 36890 ft 502 kts 108°
2026-05-05 10:13 56.22114 73.95824 36884 ft 502 kts 109°
2026-05-05 10:14 56.20042 74.07794 36884 ft 501 kts 111°
2026-05-05 10:14 56.17849 74.19679 36888 ft 502 kts 111°
2026-05-05 10:15 56.15657 74.31586 36892 ft 502 kts 110°
2026-05-05 10:15 56.13499 74.43501 36886 ft 503 kts 110°
2026-05-05 10:16 56.11356 74.55351 36895 ft 503 kts 110°
2026-05-05 10:16 56.09179 74.67265 36898 ft 503 kts 110°
2026-05-05 10:17 56.06980 74.79168 36899 ft 503 kts 110°
2026-05-05 10:17 56.04769 74.91047 36904 ft 503 kts 111°
2026-05-05 10:18 56.02539 75.02933 36906 ft 503 kts 111°
2026-05-05 10:18 56.00305 75.14782 36908 ft 503 kts 111°
2026-05-05 10:19 55.98065 75.26643 36917 ft 504 kts 110°
2026-05-05 10:19 55.95817 75.38498 36914 ft 504 kts 111°
2026-05-05 10:20 55.93546 75.50327 36918 ft 504 kts 111°
2026-05-05 10:20 55.91256 75.62154 36926 ft 505 kts 111°
2026-05-05 10:21 55.88959 75.73973 36929 ft 505 kts 111°
2026-05-05 10:21 55.86658 75.85787 36929 ft 505 kts 111°
2026-05-05 10:22 55.84335 75.97597 36934 ft 505 kts 111°
2026-05-05 10:22 55.82019 76.09307 36938 ft 505 kts 111°
2026-05-05 10:23 55.79677 76.21082 36939 ft 505 kts 111°
2026-05-05 10:23 55.77324 76.32842 36940 ft 505 kts 111°
2026-05-05 10:24 55.74965 76.44599 36938 ft 505 kts 111°
2026-05-05 10:24 55.72587 76.56332 36937 ft 505 kts 111°
2026-05-05 10:25 55.70197 76.68046 36935 ft 505 kts 111°
2026-05-05 10:25 55.67802 76.79752 36932 ft 505 kts 111°
2026-05-05 10:26 55.65391 76.91440 36930 ft 505 kts 111°
2026-05-05 10:26 55.62982 77.03063 36933 ft 506 kts 111°
2026-05-05 10:27 55.60549 77.14736 36936 ft 506 kts 111°
2026-05-05 10:27 55.58112 77.26405 36939 ft 506 kts 111°
2026-05-05 10:28 55.55655 77.38051 36942 ft 506 kts 111°
2026-05-05 10:28 55.53171 77.49681 36946 ft 506 kts 111°
2026-05-05 10:29 55.50688 77.61311 36944 ft 506 kts 111°
2026-05-05 10:29 55.48220 77.72860 36946 ft 506 kts 111°
2026-05-05 10:30 55.45726 77.84463 36953 ft 506 kts 111°
2026-05-05 10:30 55.43203 77.96064 36954 ft 506 kts 112°
2026-05-05 10:31 55.40671 78.07632 36950 ft 506 kts 112°
2026-05-05 10:31 55.38130 78.19192 36957 ft 506 kts 112°
2026-05-05 10:32 55.35788 78.30862 36954 ft 506 kts 103°
2026-05-05 10:32 55.34705 78.43056 36954 ft 505 kts 96°
2026-05-05 10:33 55.33735 78.55209 36963 ft 505 kts 97°
2026-05-05 10:33 55.32719 78.67425 36961 ft 505 kts 97°
2026-05-05 10:34 55.31701 78.79638 36963 ft 505 kts 97°
2026-05-05 10:34 55.30685 78.91834 36956 ft 505 kts 97°
2026-05-05 10:35 55.29664 79.04044 36686 ft 505 kts 97°
2026-05-05 10:35 55.29148 79.10143 36424 ft 505 kts 97°
2026-05-05 10:35 55.28627 79.16237 36166 ft 506 kts 97°
2026-05-05 10:36 55.28279 79.20269 35993 ft 507 kts 97°
2026-05-05 10:36 55.27565 79.28481 35658 ft 508 kts 97°
2026-05-05 10:36 55.27213 79.32524 35482 ft 509 kts 97°
2026-05-05 10:36 55.26674 79.38675 35242 ft 509 kts 97°
2026-05-05 10:37 55.26133 79.44836 35003 ft 510 kts 97°
2026-05-05 10:37 55.25588 79.50982 34750 ft 511 kts 97°
2026-05-05 10:37 55.25036 79.57141 34432 ft 513 kts 97°
2026-05-05 10:37 55.24476 79.63355 33224 ft 521 kts 97°
2026-05-05 10:38 55.23912 79.69650 32094 ft 524 kts 97°
2026-05-05 10:38 55.23341 79.75995 30921 ft 528 kts 98°
2026-05-05 10:38 55.22765 79.82332 29708 ft 530 kts 98°
2026-05-05 10:38 55.22185 79.88659 28876 ft 522 kts 98°
2026-05-05 10:39 55.21605 79.94918 28061 ft 515 kts 99°
2026-05-05 10:39 55.21026 80.01066 27278 ft 510 kts 99°
2026-05-05 10:39 55.20448 80.07167 26480 ft 505 kts 99°
2026-05-05 10:39 55.19876 80.13189 25761 ft 499 kts 99°
2026-05-05 10:40 55.19308 80.19156 25010 ft 495 kts 99°
2026-05-05 10:40 55.18748 80.25063 24286 ft 491 kts 99°
2026-05-05 10:40 55.18188 80.30952 23545 ft 488 kts 99°
2026-05-05 10:40 55.17640 80.36718 22794 ft 484 kts 99°
2026-05-05 10:41 55.17087 80.42478 22149 ft 478 kts 99°
2026-05-05 10:41 55.16534 80.48189 21495 ft 473 kts 99°
2026-05-05 10:41 55.15983 80.53824 20905 ft 467 kts 99°
2026-05-05 10:41 55.15433 80.59398 20319 ft 463 kts 99°
2026-05-05 10:42 55.14344 80.70386 19193 ft 455 kts 99°
2026-05-05 10:42 55.13802 80.75817 18636 ft 452 kts 99°
2026-05-05 10:42 55.13261 80.81229 18017 ft 450 kts 99°
2026-05-05 10:43 55.12720 80.86606 17419 ft 448 kts 99°
2026-05-05 10:43 55.12180 80.91949 16820 ft 445 kts 99°
2026-05-05 10:43 55.11469 80.97197 16230 ft 442 kts 109°
2026-05-05 10:43 55.10273 81.02116 15655 ft 439 kts 116°
2026-05-05 10:44 55.08997 81.06947 15050 ft 437 kts 116°
2026-05-05 10:44 55.07741 81.11677 14463 ft 435 kts 116°
2026-05-05 10:44 55.06468 81.16450 13850 ft 434 kts 116°
2026-05-05 10:44 55.05190 81.21240 13281 ft 431 kts 116°
2026-05-05 10:45 55.03938 81.25948 12608 ft 429 kts 116°
2026-05-05 10:45 55.02691 81.30638 12051 ft 422 kts 116°
2026-05-05 10:45 55.01457 81.35267 11486 ft 418 kts 116°
2026-05-05 10:45 55.00234 81.39834 10906 ft 414 kts 116°
2026-05-05 10:46 54.99028 81.44318 10682 ft 400 kts 117°
2026-05-05 10:46 54.97870 81.48615 10558 ft 384 kts 117°
2026-05-05 10:46 54.96754 81.52743 10433 ft 370 kts 117°
2026-05-05 10:46 54.95675 81.56725 10314 ft 357 kts 117°
2026-05-05 10:47 54.94636 81.60567 10189 ft 345 kts 117°
2026-05-05 10:47 54.93623 81.64305 9931 ft 339 kts 117°
2026-05-05 10:47 54.92821 81.68154 9573 ft 338 kts 103°
2026-05-05 10:47 54.92585 81.72195 9206 ft 335 kts 88°
2026-05-05 10:48 54.92632 81.76241 8815 ft 333 kts 88°
2026-05-05 10:48 54.92674 81.80255 8490 ft 329 kts 88°
2026-05-05 10:48 54.92715 81.84165 8293 ft 320 kts 88°
2026-05-05 10:48 54.92755 81.87965 7961 ft 317 kts 88°
2026-05-05 10:49 54.92790 81.91776 7603 ft 315 kts 89°
2026-05-05 10:49 54.92827 81.95580 7230 ft 313 kts 87°
2026-05-05 10:49 54.93167 81.99286 6853 ft 310 kts 73°
2026-05-05 10:49 54.93742 82.02891 6455 ft 309 kts 73°
2026-05-05 10:50 54.94312 82.06482 6069 ft 307 kts 73°
2026-05-05 10:50 54.94876 82.10052 5699 ft 305 kts 73°
2026-05-05 10:50 54.95432 82.13588 5320 ft 303 kts 74°
2026-05-05 10:50 54.95999 82.17193 4517 ft 315 kts 74°
2026-05-05 10:51 54.96587 82.20945 3658 ft 327 kts 74°
2026-05-05 10:51 54.97184 82.24771 3300 ft 319 kts 74°
2026-05-05 10:51 54.97745 82.28384 3296 ft 299 kts 74°
2026-05-05 10:51 54.98210 82.31783 3297 ft 280 kts 78°
2026-05-05 10:52 54.98504 82.35018 3295 ft 259 kts 82°
2026-05-05 10:53 54.99542 82.46554 2209 ft 221 kts 81°
2026-05-05 10:53 54.99779 82.49114 1922 ft 207 kts 81°
2026-05-05 10:53 55.00000 82.51504 1657 ft 193 kts 81°
2026-05-05 10:53 55.00201 82.53672 1418 ft 173 kts 82°
2026-05-05 10:54 55.00385 82.55654 1165 ft 159 kts 81°
2026-05-05 10:54 55.00555 82.57494 938 ft 150 kts 80°
2026-05-05 10:54 55.00711 82.59234 739 ft 142 kts 79°
2026-05-05 10:54 55.00863 82.60911 562 ft 138 kts 77°
2026-05-05 10:55 55.01016 82.62550 385 ft 135 kts 78°
2026-05-05 10:55 55.01145 82.63955 374 ft 94 kts 81°
2026-05-05 10:55 55.01222 82.64814 373 ft 58 kts 82°
2026-05-05 10:55 55.01278 82.65449 373 ft 46 kts 82°
2026-05-05 10:56 55.01322 82.65926 373 ft 38 kts 80°
2026-05-05 10:56 55.01353 82.66272 373 ft 21 kts 80°
2026-05-05 10:56 55.01375 82.66496 375 ft 14 kts 80°
2026-05-05 10:56 55.01316 82.66610 373 ft 14 kts 166°
2026-05-05 10:57 55.01221 82.66630 373 ft 13 kts 171°
2026-05-05 10:57 55.01134 82.66652 373 ft 12 kts 174°
2026-05-05 10:57 55.01073 82.66596 373 ft 10 kts 243°
2026-05-05 10:57 55.01046 82.66493 373 ft 9 kts 247°
2026-05-05 10:58 55.01023 82.66402 373 ft 7 kts 231°
2026-05-05 10:58 55.00980 82.66395 373 ft 6 kts 171°
2026-05-05 10:58 55.00953 82.66403 373 ft 1 kts 170°
2026-05-05 10:58 55.00952 82.66403 373 ft 0 kts 170°